Total_Precipitation_Accumulation
1.10 1.34 1.55 1.77 2.03 2.21 2.29 2.44 2.70 2.98 3.18 3.48 3.81 3.98 4.04 4.23 4.34 4.38 4.47 4.43 4.39 4.51 4.57 4.44 4.32 4.16 4.04 3.86 3.75 3.58 3.38 3.14 3.06 2.90 2.52 2.06 1.77 1.74 1.66 1.70 1.83 1.83 1.77
1.12 1.44 1.78 2.21 2.43 2.53 2.54 2.73 3.00 3.23 3.42 3.78 4.25 4.65 4.79 4.88 4.90 4.92 5.12 5.21 5.24 5.39 5.46 5.38 5.16 4.92 4.60 4.15 3.80 3.60 3.43 3.14 3.14 3.09 2.97 2.39 1.97 1.64 1.34 1.42 1.49 1.55 1.66
1.38 1.62 1.93 2.18 2.37 2.47 2.58 2.79 3.17 3.55 3.96 4.42 4.92 5.31 5.56 5.59 5.52 5.25 5.38 5.56 5.50 5.54 5.69 5.64 5.39 5.02 4.46 3.96 3.78 3.69 3.56 3.36 3.27 3.11 3.15 2.71 2.28 1.92 1.50 1.28 1.20 1.27 1.32
1.39 1.63 1.85 2.11 2.22 2.38 2.62 2.83 3.17 3.76 4.22 4.61 5.25 5.78 6.06 6.26 6.36 6.14 5.84 5.66 5.47 5.34 5.22 5.05 4.64 4.21 3.89 3.62 3.52 3.53 3.35 3.31 3.20 3.12 2.81 2.57 2.31 2.09 1.74 1.40 1.21 1.20 1.21
1.27 1.53 1.62 1.86 2.15 2.28 2.40 2.60 3.07 3.66 4.36 5.01 5.55 6.03 6.43 6.64 6.58 6.17 5.76 5.29 4.94 4.53 4.18 3.82 3.54 3.44 3.26 3.04 2.93 2.90 2.85 2.70 2.63 2.64 2.59 2.52 2.28 1.98 1.77 1.55 1.37 1.34 1.24
1.16 1.25 1.33 1.49 1.82 1.95 2.16 2.40 2.77 3.47 4.21 4.84 5.43 5.85 6.21 6.26 5.95 5.43 4.92 4.60 4.22 3.76 3.32 3.09 2.84 2.69 2.52 2.30 2.17 2.16 2.22 2.30 2.33 2.36 2.34 2.30 2.27 2.13 2.03 1.87 1.66 1.52 1.46
1.02 1.11 1.14 1.28 1.50 1.67 1.96 2.32 2.77 3.31 3.77 4.30 4.80 5.08 5.31 5.38 5.30 4.98 4.56 4.25 3.82 3.40 2.95 2.51 2.29 2.05 1.85 1.73 1.66 1.64 1.67 1.79 1.91 2.02 2.06 2.05 2.02 1.99 2.01 2.07 1.90 1.68 1.54
1.07 1.23 1.32 1.42 1.55 1.68 1.84 2.18 2.58 2.98 3.21 3.47 3.86 4.11 4.24 4.30 4.18 3.94 3.62 3.35 3.07 2.81 2.47 2.02 1.66 1.44 1.29 1.22 1.24 1.29 1.34 1.39 1.47 1.60 1.73 1.76 1.72 1.79 1.87 1.95 2.02 1.97 1.73
1.09 1.24 1.39 1.51 1.61 1.68 1.85 1.95 2.14 2.34 2.58 2.80 2.98 3.11 3.15 3.07 2.96 2.75 2.52 2.33 2.16 1.94 1.72 1.48 1.26 1.13 1.08 1.05 1.05 1.04 1.05 1.11 1.20 1.28 1.40 1.53 1.56 1.59 1.66 1.77 1.88 1.94 1.88
1.10 1.20 1.28 1.39 1.45 1.43 1.53 1.62 1.79 1.87 1.99 2.13 2.18 2.11 2.10 2.08 1.93 1.77 1.67 1.54 1.38 1.27 1.20 1.10 1.03 0.96 0.88 0.88 0.91 0.88 0.86 0.96 1.00 1.02 1.11 1.22 1.32 1.40 1.48 1.61 1.70 1.74 1.74
1.07 1.09 1.11 1.16 1.20 1.14 1.15 1.24 1.38 1.58 1.66 1.65 1.66 1.58 1.51 1.38 1.27 1.19 1.16 1.09 1.03 1.00 0.96 0.93 0.89 0.85 0.83 0.80 0.78 0.77 0.75 0.82 0.94 1.02 1.07 1.12 1.15 1.21 1.25 1.30 1.38 1.50 1.60
1.10 1.03 0.98 0.95 0.95 0.91 0.92 0.99 1.09 1.18 1.22 1.23 1.19 1.18 1.12 1.04 0.99 0.97 0.95 0.97 0.93 0.88 0.88 0.86 0.85 0.84 0.85 0.85 0.81 0.75 0.72 0.76 0.85 0.91 0.95 0.96 0.96 0.99 1.06 1.14 1.17 1.25 1.36
1.12 1.08 1.02 0.94 0.92 0.95 0.93 0.89 0.93 0.98 1.01 1.03 1.00 0.97 1.00 0.97 0.94 0.95 0.96 0.95 0.91 0.86 0.82 0.77 0.79 0.84 0.84 0.81 0.78 0.74 0.72 0.70 0.74 0.77 0.78 0.80 0.85 0.85 0.86 0.90 0.96 1.02 1.08
1.05 1.09 1.14 1.10 1.01 0.97 0.97 0.93 0.89 0.92 1.02 0.99 0.92 0.83 0.79 0.81 0.84 0.86 0.87 0.85 0.81 0.80 0.80 0.78 0.75 0.74 0.69 0.61 0.56 0.56 0.57 0.56 0.57 0.59 0.61 0.68 0.75 0.74 0.75 0.74 0.76 0.82 0.91
1.16 1.15 1.13 1.12 1.06 1.01 1.00 0.92 0.91 0.93 1.07 1.08 1.02 0.93 0.84 0.82 0.84 0.83 0.81 0.77 0.73 0.68 0.65 0.63 0.60 0.51 0.43 0.39 0.38 0.41 0.43 0.45 0.46 0.48 0.47 0.49 0.57 0.63 0.61 0.58 0.64 0.75 0.85
1.39 1.36 1.31 1.29 1.26 1.19 1.16 1.06 1.05 1.07 1.11 1.17 1.24 1.25 1.18 1.09 1.05 0.96 0.85 0.81 0.77 0.67 0.57 0.52 0.51 0.44 0.35 0.36 0.33 0.35 0.41 0.45 0.46 0.47 0.48 0.45 0.46 0.46 0.45 0.49 0.61 0.75 0.78
1.66 1.62 1.57 1.50 1.42 1.36 1.34 1.31 1.24 1.20 1.21 1.24 1.27 1.24 1.23 1.20 1.12 1.00 0.86 0.81 0.78 0.74 0.70 0.60 0.54 0.53 0.47 0.40 0.35 0.37 0.44 0.49 0.47 0.46 0.46 0.40 0.38 0.42 0.43 0.47 0.54 0.61 0.63
1.62 1.63 1.62 1.60 1.58 1.46 1.39 1.37 1.32 1.27 1.26 1.27 1.26 1.22 1.12 1.06 0.97 0.90 0.85 0.77 0.72 0.72 0.71 0.66 0.61 0.53 0.42 0.32 0.28 0.28 0.37 0.46 0.46 0.45 0.46 0.48 0.47 0.44 0.46 0.46 0.50 0.59 0.65
1.72 1.68 1.63 1.56 1.51 1.43 1.38 1.35 1.35 1.31 1.29 1.26 1.17 1.07 0.99 0.95 0.87 0.83 0.76 0.68 0.61 0.60 0.57 0.54 0.51 0.49 0.39 0.24 0.19 0.21 0.36 0.46 0.43 0.37 0.36 0.39 0.44 0.45 0.43 0.47 0.58 0.65 0.70
1.57 1.46 1.34 1.28 1.29 1.30 1.28 1.26 1.27 1.24 1.19 1.02 0.85 0.77 0.79 0.79 0.75 0.70 0.62 0.57 0.56 0.55 0.48 0.43 0.43 0.43 0.39 0.26 0.21 0.23 0.35 0.44 0.41 0.38 0.36 0.36 0.37 0.37 0.38 0.47 0.61 0.71 0.71
1.21 1.12 1.05 1.11 1.17 1.17 1.11 1.09 1.06 1.03 0.95 0.87 0.74 0.69 0.68 0.62 0.60 0.58 0.57 0.54 0.51 0.54 0.53 0.50 0.46 0.39 0.31 0.22 0.18 0.20 0.27 0.37 0.41 0.41 0.43 0.39 0.31 0.28 0.31 0.41 0.52 0.61 0.59
0.89 0.85 0.86 0.91 0.94 0.89 0.91 0.98 0.96 0.85 0.77 0.81 0.76 0.71 0.62 0.51 0.52 0.61 0.59 0.55 0.58 0.62 0.60 0.56 0.50 0.38 0.30 0.19 0.16 0.19 0.23 0.27 0.37 0.45 0.43 0.39 0.31 0.29 0.33 0.40 0.48 0.52 0.60
0.66 0.69 0.68 0.71 0.78 0.78 0.82 0.88 0.87 0.76 0.74 0.81 0.79 0.67 0.55 0.56 0.57 0.60 0.57 0.50 0.49 0.46 0.43 0.42 0.42 0.37 0.30 0.23 0.18 0.21 0.23 0.25 0.29 0.34 0.31 0.29 0.31 0.34 0.46 0.49 0.48 0.57 0.78
0.49 0.56 0.58 0.57 0.62 0.65 0.70 0.75 0.68 0.66 0.80 0.88 0.79 0.63 0.53 0.51 0.50 0.49 0.42 0.37 0.37 0.36 0.35 0.33 0.32 0.33 0.34 0.29 0.25 0.25 0.26 0.27 0.29 0.31 0.31 0.36 0.43 0.47 0.55 0.63 0.72 0.77 0.83
0.46 0.50 0.53 0.51 0.49 0.52 0.58 0.54 0.55 0.67 0.89 0.86 0.72 0.58 0.47 0.43 0.41 0.34 0.27 0.22 0.21 0.19 0.23 0.25 0.23 0.27 0.27 0.23 0.23 0.24 0.23 0.24 0.24 0.25 0.39 0.59 0.65 0.71 0.76 0.81 0.86 0.92 0.86
0.42 0.49 0.49 0.44 0.45 0.48 0.50 0.48 0.50 0.58 0.77 0.77 0.58 0.47 0.41 0.36 0.30 0.27 0.26 0.18 0.13 0.11 0.09 0.11 0.12 0.13 0.15 0.15 0.16 0.18 0.21 0.22 0.25 0.30 0.51 0.63 0.67 0.73 0.74 0.74 0.79 0.85 0.86